TimeCST,TemperatureF,Dew PointF,Humidity,Sea Level PressureIn,VisibilityMPH,Wind Direction,Wind SpeedMPH,Gust SpeedMPH,PrecipitationIn,Events,Conditions,WindDirDegrees,DateUTC
12:52 AM,41.0,27.0,57,30.24,10.0,South,9.2,-,N/A,,Clear,180,2012-11-15 06:52:00
1:52 AM,41.0,27.0,57,30.24,10.0,South,13.8,-,N/A,,Clear,180,2012-11-15 07:52:00
2:52 AM,42.1,27.0,55,30.24,10.0,South,12.7,-,N/A,,Clear,180,2012-11-15 08:52:00
3:52 AM,39.9,28.0,63,30.24,10.0,South,8.1,-,N/A,,Clear,180,2012-11-15 09:52:00
4:52 AM,37.9,28.0,68,30.22,10.0,South,8.1,-,N/A,,Scattered Clouds,170,2012-11-15 10:52:00
5:52 AM,37.4,28.4,70,30.24,10.0,South,4.6,-,N/A,,Scattered Clouds,170,2012-11-15 11:52:00
6:52 AM,37.0,30.0,76,30.25,10.0,South,4.6,-,N/A,,Mostly Cloudy,170,2012-11-15 12:52:00
7:52 AM,41.0,30.9,67,30.26,10.0,SE,4.6,-,N/A,,Mostly Cloudy,140,2012-11-15 13:52:00
8:52 AM,46.0,30.9,56,30.28,10.0,South,9.2,-,N/A,,Mostly Cloudy,190,2012-11-15 14:52:00
9:52 AM,50.0,32.0,50,30.27,10.0,South,10.4,-,N/A,,Mostly Cloudy,190,2012-11-15 15:52:00
10:52 AM,54.0,35.1,49,30.27,10.0,South,9.2,-,N/A,,Mostly Cloudy,180,2012-11-15 16:52:00
11:52 AM,57.9,37.9,47,30.26,10.0,South,10.4,-,N/A,,Mostly Cloudy,190,2012-11-15 17:52:00
12:52 PM,61.0,39.9,46,30.22,10.0,ESE,8.1,-,N/A,,Mostly Cloudy,120,2012-11-15 18:52:00
1:52 PM,62.1,39.9,44,30.20,10.0,East,11.5,-,N/A,,Scattered Clouds,100,2012-11-15 19:52:00
2:52 PM,63.0,39.0,41,30.19,10.0,ESE,10.4,-,N/A,,Scattered Clouds,110,2012-11-15 20:52:00
3:52 PM,63.0,39.9,43,30.19,10.0,ESE,10.4,-,N/A,,Scattered Clouds,110,2012-11-15 21:52:00
4:52 PM,61.0,39.0,44,30.21,10.0,East,11.5,-,N/A,,Scattered Clouds,100,2012-11-15 22:52:00
5:52 PM,54.0,39.0,57,30.24,10.0,East,9.2,-,N/A,,Scattered Clouds,100,2012-11-15 23:52:00
6:52 PM,50.0,36.0,59,30.27,10.0,ESE,8.1,-,N/A,,Partly Cloudy,110,2012-11-16 00:52:00
7:52 PM,46.9,35.1,63,30.29,10.0,East,6.9,-,N/A,,Clear,100,2012-11-16 01:52:00
8:52 PM,44.1,34.0,68,30.30,10.0,ESE,8.1,-,N/A,,Clear,110,2012-11-16 02:52:00
9:52 PM,45.0,33.1,63,30.32,10.0,North,-9999.0,-,N/A,,Clear,0,2012-11-16 03:52:00
10:52 PM,44.1,33.1,65,30.33,10.0,East,5.8,-,N/A,,Mostly Cloudy,80,2012-11-16 04:52:00
11:52 PM,45.0,34.0,65,30.33,10.0,ESE,4.6,-,N/A,,Mostly Cloudy,110,2012-11-16 05:52:00